You are listening to:
ZBAA Tower - Beijing, China

ZBAA 250930Z 17002MPS CAVOK 07/M07 Q1025 NOSIG

If stream doesn't start automatically press the play button
If stream stops then reload player then press play